Location: Charlottesville
(38.0290°N, 78.4770°W)
Time: 23:31:33
(UTC-04:00)

ISS - Pass Details

Date: 07 October 2017
Orbit: 401 x 408 km, 51.6° (Epoch: 19 October)

Event Time Altitude Azimuth Distance (km) Brightness Sun altitude
Rises 20:42:11 0° 320° (NW) 2,328 0.8 -23.3°
Reaches altitude 10° 20:45:07 10° 349° (NNW) 1,468 -0.7 -23.9°
Enters shadow 20:45:24 11° 353° (N) 1,412 -0.9 -24.0°
